Temperature
20 20 21 21 23 24 23 22 22 19 19 18 17 17 18 19 19 18 14 13 13 12 11 10 10 10 10 10 10 10 9 9 8 8 7 7 7 6 6 6 5 5 5 5 5 5 5 5 6
20 20 21 22 23 23 23 22 21 20 18 15 15 15 17 18 14 14 14 14 12 11 11 10 10 10 10 10 10 10 10 9 9 8 8 7 7 6 6 6 5 5 5 5 5 5 5 5 6
20 21 21 24 23 23 23 22 21 17 14 15 16 15 17 17 13 14 15 14 12 11 10 10 10 10 10 10 10 10 10 9 9 8 8 7 7 6 6 6 5 5 5 5 5 5 5 6 6
20 21 22 24 23 23 23 22 19 16 14 14 16 17 15 15 14 15 15 14 12 11 10 10 10 10 10 10 10 10 9 9 9 9 8 7 7 6 6 5 5 5 5 4 5 5 5 6 6
20 22 23 23 23 22 21 19 17 18 17 16 15 18 17 16 16 16 15 14 12 11 10 10 10 10 10 10 10 10 9 9 9 9 8 8 7 7 6 6 5 5 5 5 5 5 6 6 6
21 23 23 22 23 22 21 17 17 18 18 16 15 17 17 16 16 15 15 14 12 11 11 10 10 10 10 10 9 9 9 9 9 9 8 8 7 7 6 6 5 5 5 5 5 5 6 6 6
22 23 22 22 22 23 21 16 17 18 18 16 15 17 17 15 15 15 14 13 11 11 11 10 9 9 10 9 9 9 9 9 9 8 8 8 7 7 6 6 6 5 5 5 5 6 6 5 5
20 23 22 22 22 23 20 16 16 16 18 16 14 17 18 14 15 14 13 12 11 11 10 10 9 9 9 9 9 9 9 9 8 8 8 7 7 6 6 5 5 5 5 5 5 5 5 5 5
19 22 22 22 22 23 19 16 15 14 16 13 13 15 15 15 15 14 13 12 11 11 11 10 9 9 9 9 9 9 8 8 8 8 7 7 6 6 6 6 5 5 5 5 5 5 5 4 4
20 22 22 22 22 21 18 17 17 14 15 15 14 13 15 15 15 15 14 14 13 13 12 11 10 9 9 9 9 8 8 8 7 7 7 6 6 6 6 6 5 5 5 5 5 5 4 4 4
20 21 21 19 17 17 17 16 15 16 18 17 17 15 16 15 15 15 15 15 15 13 12 11 11 10 9 9 9 8 8 8 7 7 7 6 6 6 6 6 5 5 5 4 4 4 4 3 3
19 19 17 17 14 15 16 16 15 15 18 18 17 16 16 15 15 15 15 15 14 13 13 12 11 10 9 9 8 8 8 8 7 7 6 6 6 6 6 5 5 5 4 4 4 3 3 3 3
19 18 15 14 13 14 14 15 16 16 16 16 15 16 16 16 16 16 15 14 14 14 13 13 12 11 10 9 8 8 8 8 7 7 6 6 6 6 6 5 5 5 4 4 3 3 3 2 2
17 16 16 15 14 14 14 16 14 16 17 16 15 15 15 16 16 16 15 15 14 14 14 13 12 11 10 9 9 8 8 8 7 7 6 6 6 6 5 5 5 4 4 3 3 3 2 2 2
14 17 18 16 15 15 14 17 17 18 16 16 16 16 15 16 15 15 16 15 15 15 14 13 12 11 10 10 9 8 8 7 7 7 6 6 6 6 5 5 5 4 4 3 3 2 2 2 1
17 19 20 19 16 14 15 20 22 20 17 17 17 17 15 16 17 17 16 16 15 15 14 13 13 12 11 10 9 8 8 7 7 7 6 6 6 5 5 5 4 4 4 3 2 2 1 1 1
20 21 21 20 16 15 16 19 22 19 16 17 18 18 17 16 17 18 17 17 16 15 14 14 13 12 12 11 10 9 8 8 7 7 7 6 6 6 5 5 4 4 3 3 2 2 1 0 -0
20 20 20 20 19 15 16 18 20 20 18 17 18 18 18 16 17 18 18 17 16 15 14 14 13 12 12 11 10 9 8 8 7 7 7 6 6 6 5 5 4 4 3 3 2 1 1 0 -1
19 18 19 20 18 15 17 18 20 20 20 19 18 18 18 17 17 16 16 17 16 16 15 14 14 13 12 11 11 10 10 9 8 8 7 7 6 6 5 5 4 4 3 3 2 1 0 -0 -2
17 18 19 20 16 15 17 17 19 20 19 19 18 18 17 17 16 15 14 15 16 16 16 15 14 14 13 12 12 11 10 10 9 9 8 8 7 6 5 5 4 4 3 2 2 1 0 -1 -2
17 18 19 18 18 16 15 19 21 22 20 18 17 16 16 15 15 15 14 15 16 17 17 16 16 15 14 13 12 11 10 9 9 9 9 9 8 6 6 5 4 4 3 2 2 1 0 -1 -2
18 17 16 15 16 18 16 18 21 22 21 21 20 19 17 16 15 15 15 15 17 17 17 16 16 16 15 14 13 12 12 12 13 12 11 10 9 8 7 6 5 4 3 3 2 1 0 -1 -2
17 15 15 15 16 16 17 17 20 22 22 22 21 19 18 16 16 16 17 17 17 17 17 17 16 16 15 15 14 13 13 13 12 11 11 10 10 9 8 6 5 4 3 3 2 1 0 -0 -1
15 15 14 14 16 17 17 17 20 23 22 21 20 19 17 16 16 16 17 18 17 17 17 17 17 16 16 15 15 15 14 14 13 12 12 11 10 10 9 7 6 4 4 3 2 1 0 -0 -1
15 17 19 19 18 19 15 15 19 22 21 19 18 17 17 16 16 16 16 17 17 18 18 17 17 17 17 16 16 16 15 15 14 13 12 11 11 11 11 9 7 5 4 3 2 1 0 -0 -1
16 17 18 18 19 19 15 16 20 21 19 17 17 17 17 17 16 15 16 16 17 17 17 17 17 17 17 17 16 16 16 15 14 13 12 12 12 11 10 9 7 5 4 3 2 1 0 -0 -1
16 16 16 17 17 16 17 17 18 20 20 20 19 18 17 16 15 15 15 15 16 16 17 17 17 17 16 16 16 15 15 15 15 14 12 11 11 10 9 8 6 5 4 3 2 1 0 -0 -1
14 15 15 16 16 17 18 17 19 21 21 20 19 17 16 15 14 14 14 15 15 15 16 16 16 16 15 15 14 14 14 14 13 13 12 12 11 9 8 6 5 4 3 2 2 1 0 -0 -1
14 14 15 16 16 16 17 18 19 19 19 18 17 16 15 14 13 13 14 14 14 15 15 15 15 15 15 14 14 13 13 13 13 13 12 11 10 9 7 6 4 3 2 2 1 1 0 -1 -1
14 16 16 16 17 15 16 18 20 19 18 16 16 15 14 13 12 13 13 13 14 14 14 14 14 14 14 14 13 13 13 13 13 12 12 11 9 8 7 5 4 3 2 1 1 0 -0 -1 -1
Wind_Speed
2 1 2 3 4 4 4 0 2 5 5 4 4 4 4 4 3 1 5 12 15 19 17 18 16 14 12 11 10 9 9 10 10 11 12 12 13 14 15 15 16 17 18 18 19 20 20 21 21
1 2 3 3 6 6 3 2 4 5 4 6 5 4 5 5 0 4 9 13 17 18 17 17 17 15 13 11 10 10 9 9 10 10 11 11 12 13 13 14 15 15 16 17 18 18 19 19 20
1 2 3 4 8 8 5 1 3 5 6 7 7 5 5 3 4 6 10 18 18 17 16 17 18 16 14 12 11 10 9 9 9 9 10 10 11 11 12 13 13 14 15 15 16 17 18 18 19
2 3 3 7 9 5 4 0 4 8 7 7 6 5 5 2 3 6 15 20 18 18 17 17 18 16 15 13 11 10 10 9 9 9 9 9 10 10 11 11 12 12 13 14 15 15 16 17 18
2 3 7 10 10 4 2 2 6 10 8 9 9 6 5 6 5 10 17 20 18 18 17 17 19 17 15 14 12 11 10 10 9 9 8 8 9 9 9 10 10 11 11 12 13 14 15 16 17
2 4 10 12 12 5 4 6 7 9 9 8 9 7 4 7 10 14 18 18 18 18 17 15 19 18 16 15 13 12 11 10 10 9 8 8 8 8 8 8 8 9 10 11 12 13 14 15 16
3 6 12 14 13 12 5 7 7 9 12 10 7 6 5 9 12 14 17 17 17 18 17 16 18 18 17 16 14 13 12 11 10 9 8 8 7 7 7 6 7 7 8 9 10 11 12 14 15
2 6 14 14 15 16 4 8 5 9 8 5 7 8 4 8 15 15 16 16 16 17 18 17 16 17 17 17 16 14 13 12 11 10 9 8 7 6 5 5 6 6 6 8 9 10 10 11 13
2 8 15 16 15 14 6 8 6 5 7 6 8 6 3 12 18 17 16 16 16 17 18 18 18 17 16 15 16 16 14 13 13 12 10 8 6 6 5 4 4 5 5 6 7 7 8 7 9
4 10 16 10 9 8 6 8 7 7 11 10 10 11 7 14 19 21 21 22 22 22 21 20 19 18 17 15 14 14 14 14 13 12 12 8 7 6 5 5 4 4 4 4 5 5 5 6 6
5 9 8 5 4 4 5 7 6 9 14 15 15 17 16 17 20 22 23 24 24 22 21 20 21 20 19 16 15 13 12 12 13 13 12 9 8 8 7 6 5 4 3 2 1 1 4 5 6
5 6 5 4 3 4 6 6 8 14 16 7 11 11 19 21 24 25 25 24 22 22 23 22 23 21 20 18 16 15 13 13 13 14 14 12 9 9 8 7 6 6 4 3 1 1 2 3 4
5 4 4 5 6 7 8 12 11 18 19 12 7 11 19 22 24 25 24 22 22 23 23 23 24 23 21 19 16 16 16 15 15 14 15 14 11 10 10 8 8 7 6 5 3 2 2 3 4
3 4 6 6 7 5 9 13 10 19 14 16 17 18 20 22 24 23 23 23 24 24 24 23 23 25 23 20 18 17 16 15 15 15 17 17 14 12 11 10 9 8 7 6 4 3 3 4 5
2 6 8 7 6 4 6 13 14 19 10 15 19 21 22 23 23 25 25 26 25 25 24 24 24 25 24 22 21 18 17 17 16 16 18 18 16 14 12 10 10 9 8 7 6 5 5 5 7
4 5 6 3 6 4 5 16 14 9 12 18 19 20 21 23 24 25 25 24 24 23 23 24 20 23 24 22 21 18 18 18 17 17 17 20 19 17 14 12 11 11 9 8 7 6 5 6 6
5 6 9 6 6 5 7 19 22 9 12 19 21 21 21 22 24 25 25 25 23 23 23 24 24 24 23 23 21 20 18 18 18 18 18 20 21 20 17 13 12 12 11 9 8 7 6 7 7
7 11 13 12 4 7 12 23 30 22 18 24 24 23 22 23 25 23 23 24 23 22 22 23 24 24 22 19 17 16 17 18 19 19 19 20 21 21 19 15 15 14 11 9 9 9 8 7 7
10 12 18 18 6 7 17 25 30 28 21 23 24 23 23 24 23 19 20 21 22 22 23 23 24 24 21 18 18 17 17 16 16 19 22 23 22 22 21 16 16 15 12 12 11 10 10 9 7
9 12 17 13 2 6 16 25 27 22 18 17 18 19 19 19 18 17 17 19 22 24 24 24 25 24 24 20 18 16 16 14 16 18 21 24 25 24 22 21 16 16 13 14 13 12 9 8 8
10 11 12 11 9 6 10 14 12 12 8 9 10 12 13 13 14 13 16 18 20 23 25 23 25 25 25 23 16 14 14 13 15 17 17 23 26 26 25 24 20 17 15 14 15 14 14 11 9
10 5 8 8 8 7 5 9 14 10 11 9 12 12 12 9 8 9 12 16 19 21 20 22 23 24 24 23 21 22 19 20 20 17 17 20 26 27 27 25 24 20 17 16 15 15 13 13 11
5 2 4 5 6 8 5 6 10 8 9 15 16 16 15 13 9 7 8 12 15 17 18 19 21 22 23 24 24 24 23 20 16 17 19 20 21 26 28 27 24 21 17 17 17 16 16 14 13
2 3 2 2 4 5 2 4 8 5 7 13 15 16 16 15 13 10 7 7 11 13 15 17 19 21 22 24 25 26 27 24 21 20 19 18 16 18 25 26 24 22 18 19 18 17 18 15 15
3 5 5 4 4 3 2 6 10 11 8 9 12 14 14 15 15 13 11 8 8 11 15 17 20 22 23 24 26 27 27 26 25 22 21 19 16 17 22 23 22 20 21 20 19 18 18 18 17
2 4 5 6 7 7 3 7 9 12 10 8 7 9 13 17 17 15 13 10 8 8 12 16 19 21 21 23 24 24 24 20 19 22 20 19 17 18 19 23 23 23 22 20 19 17 17 16 17
3 3 2 5 8 8 7 7 12 11 4 4 11 15 18 19 19 17 15 13 10 8 8 13 16 18 19 21 22 21 22 22 21 20 20 18 18 16 20 21 23 22 22 21 20 16 18 16 17
3 2 3 4 6 7 8 8 7 9 13 16 16 18 20 19 18 17 15 14 12 10 8 8 12 14 15 17 18 16 19 21 20 19 21 20 20 19 19 21 22 22 22 22 20 17 17 18 17
5 4 6 5 6 7 9 8 6 11 15 14 15 18 18 17 16 15 14 13 12 10 8 6 7 10 11 13 15 17 17 18 19 19 21 20 19 20 20 20 21 22 22 22 21 20 19 19 18
5 6 7 6 9 8 11 13 9 12 10 11 16 17 15 14 13 13 14 14 13 12 10 8 7 7 9 10 12 15 16 16 18 19 19 19 20 19 20 20 21 22 22 23 23 22 21 20 20
Wind_Direction
168 213 227 228 232 248 288 3 180 167 176 157 158 193 219 229 257 357 126 156 149 154 159 160 157 153 148 139 130 119 106 96 88 81 77 74 68 64 61 58 56 53 52 50 48 46 45 44 44
177 222 214 228 250 260 279 179 202 189 146 146 174 206 227 235 205 124 153 162 158 157 161 160 158 157 153 147 138 128 116 104 95 87 82 77 71 66 63 58 55 53 51 50 47 45 43 42 42
180 253 217 226 247 266 292 191 194 142 151 174 187 217 244 228 174 174 165 163 163 162 163 159 161 161 158 153 146 137 125 114 104 94 88 82 75 69 65 60 56 53 51 49 47 45 42 40 39
230 199 216 241 250 266 297 173 168 163 175 203 205 211 220 209 169 162 156 164 168 167 166 165 166 165 163 159 153 145 135 125 115 104 95 88 81 72 68 63 58 53 51 49 47 44 41 38 37
238 226 231 243 255 257 236 201 184 195 191 196 206 228 216 167 152 154 162 169 172 170 170 171 170 170 168 166 161 155 145 136 126 115 105 96 89 79 72 67 60 54 51 48 47 44 40 37 35
210 236 247 254 260 256 225 195 189 217 210 191 207 233 221 148 164 164 167 173 177 174 175 177 176 176 175 173 169 164 156 147 137 128 118 107 98 89 79 73 66 57 52 49 46 43 40 35 33
245 250 258 267 273 271 239 178 206 220 215 204 202 221 188 175 172 167 171 176 181 180 181 182 184 181 181 180 177 172 166 159 150 140 131 120 108 100 87 78 74 63 54 51 47 44 40 34 32
273 259 262 263 270 277 219 180 224 224 223 195 200 228 215 168 163 166 172 180 186 188 190 188 190 185 184 184 183 179 174 169 161 151 143 133 122 114 103 95 83 72 58 53 49 45 41 35 32
235 255 261 266 270 279 193 197 208 217 219 203 218 238 75 139 156 166 175 187 193 196 197 195 193 189 187 186 183 183 181 178 171 164 157 155 158 152 145 109 98 87 67 58 52 45 38 35 33
221 255 265 275 270 277 209 219 206 204 221 224 223 214 158 160 169 178 187 192 197 199 198 197 197 193 190 188 187 188 186 181 183 177 172 178 177 176 167 135 123 109 91 77 56 46 34 23 17
230 257 275 257 258 263 232 226 216 222 235 230 226 210 182 180 187 193 199 201 201 199 198 200 199 197 195 192 191 189 187 183 188 190 188 188 185 183 188 184 174 172 173 168 103 22 23 16 10
245 254 262 266 244 240 241 238 229 228 246 252 237 213 182 190 196 202 205 206 203 201 201 200 199 200 200 198 197 196 193 192 193 195 196 194 193 196 196 201 197 199 200 202 225 339 4 352 344
240 262 253 254 250 247 254 246 254 251 250 242 226 197 196 202 206 210 211 209 206 205 204 202 200 201 201 202 203 202 202 201 199 196 198 200 199 200 200 202 202 205 204 207 217 247 300 307 310
267 261 262 257 246 246 256 261 251 260 250 235 227 219 213 212 212 212 212 212 209 208 206 203 203 203 202 203 205 206 206 204 203 200 201 202 205 204 202 204 205 207 207 209 216 236 268 283 288
253 277 267 235 232 251 271 266 240 254 238 235 231 230 226 224 218 216 213 212 211 209 207 204 203 204 204 206 208 208 207 204 204 204 203 203 207 207 206 208 207 207 204 207 215 223 247 265 273
245 262 275 202 204 214 251 275 274 261 233 244 243 237 231 228 224 223 219 216 214 210 207 206 202 204 206 207 208 209 209 207 208 206 204 205 207 208 209 211 211 206 204 210 216 226 240 250 262
241 278 293 291 203 215 239 277 285 273 244 255 255 248 240 236 230 226 221 217 214 211 207 206 203 205 205 207 208 211 211 211 211 208 207 206 207 208 210 214 212 205 207 211 214 221 232 245 253
293 295 292 293 259 231 257 274 284 282 257 262 264 260 251 244 239 228 220 218 214 212 208 206 205 206 205 206 209 212 215 216 215 213 211 207 206 207 210 214 212 207 209 211 212 219 223 237 251
284 281 286 292 292 255 271 280 286 290 283 269 266 265 261 255 251 237 221 215 212 210 208 206 205 205 203 203 206 209 213 214 216 216 214 210 209 207 209 212 211 209 212 214 214 218 226 230 234
257 276 286 297 268 258 289 288 287 289 286 283 280 279 275 270 259 239 224 214 211 210 208 207 207 204 204 205 206 210 214 218 218 217 218 215 211 209 209 212 211 209 213 215 215 215 223 228 220
260 263 285 298 311 255 300 296 293 306 312 308 302 294 293 283 271 250 230 221 216 214 210 208 207 206 206 205 205 207 214 220 217 217 217 216 214 211 210 212 212 211 211 214 213 212 217 224 219
278 276 268 283 300 302 331 305 303 325 338 10 14 11 359 342 307 273 245 229 222 220 216 215 212 210 207 204 206 205 208 214 217 216 217 215 214 214 212 212 212 212 212 215 214 212 216 222 229
272 347 261 272 278 286 261 261 289 313 350 8 11 14 15 9 352 317 271 244 233 223 218 218 217 215 211 208 210 212 219 224 224 220 219 217 214 215 214 212 211 212 212 214 213 210 213 216 224
239 251 221 213 241 259 231 254 290 318 344 346 354 3 8 5 359 347 316 267 242 226 218 216 217 218 214 212 214 216 221 223 223 221 219 217 216 214 215 213 212 211 211 212 212 211 213 215 221
231 285 290 271 257 260 147 252 261 283 313 320 327 341 356 2 1 354 343 315 266 232 220 216 217 220 215 214 217 220 223 224 225 225 222 218 217 216 214 211 212 211 210 209 209 210 214 216 220
235 267 297 301 295 298 245 248 265 288 304 304 318 341 356 359 354 346 339 325 299 260 232 222 221 223 218 217 221 223 225 227 230 229 225 223 222 221 216 213 213 211 209 207 207 210 214 216 220
234 226 307 284 281 277 261 264 287 282 286 346 351 356 356 351 346 341 337 334 323 300 262 235 230 230 225 222 223 225 226 227 230 231 230 230 228 225 219 215 215 213 209 206 205 210 212 214 219
280 222 205 250 280 281 270 262 259 290 316 333 343 348 347 345 343 340 338 337 333 323 304 268 244 239 234 229 227 229 229 229 232 233 232 231 230 226 223 219 216 214 210 207 206 210 213 213 218
184 195 224 248 258 274 286 269 256 282 311 327 336 339 340 341 341 341 340 340 339 338 331 308 272 254 244 235 232 231 233 232 232 233 235 234 232 228 225 222 218 215 211 207 207 209 209 214 219
237 238 221 250 262 250 277 281 274 282 306 322 326 332 338 342 344 345 345 347 348 346 342 329 303 275 257 246 240 238 237 235 235 236 237 235 234 230 226 223 220 218 214 209 207 209 209 212 218
Height
1560 1561 1563 1565 1564 1561 1562 1564 1566 1571 1573 1576 1578 1578 1577 1576 1576 1580 1579 1577 1579 1582 1585 1587 1589 1590 1591 1592 1592 1592 1592 1591 1590 1590 1589 1587 1586 1585 1584 1582 1581 1579 1577 1576 1574 1572 1570 1568 1566
1561 1562 1565 1565 1561 1564 1562 1562 1566 1569 1573 1576 1578 1578 1577 1576 1576 1575 1574 1575 1578 1581 1584 1586 1587 1589 1590 1591 1591 1591 1591 1591 1590 1589 1588 1587 1586 1585 1583 1582 1581 1579 1577 1576 1574 1572 1570 1568 1566
1562 1563 1565 1562 1561 1563 1561 1562 1565 1572 1574 1576 1577 1577 1576 1575 1573 1573 1573 1574 1576 1579 1582 1584 1586 1587 1589 1590 1590 1590 1590 1590 1589 1589 1588 1587 1585 1584 1583 1582 1580 1579 1577 1575 1574 1572 1570 1569 1567
1563 1565 1564 1561 1561 1559 1560 1563 1567 1572 1575 1575 1575 1574 1573 1571 1570 1570 1571 1572 1575 1578 1581 1583 1584 1586 1587 1588 1589 1589 1589 1589 1589 1588 1587 1586 1585 1584 1582 1581 1580 1578 1577 1575 1574 1572 1570 1569 1567
1563 1563 1561 1560 1559 1560 1563 1566 1568 1569 1570 1571 1573 1570 1570 1567 1567 1568 1569 1571 1573 1576 1579 1581 1582 1584 1586 1587 1588 1588 1588 1588 1588 1587 1586 1585 1584 1583 1582 1580 1579 1577 1576 1575 1573 1572 1570 1569 1567
1565 1562 1561 1561 1556 1558 1563 1566 1568 1567 1567 1569 1570 1569 1566 1564 1564 1566 1567 1569 1572 1574 1576 1579 1580 1582 1584 1585 1586 1586 1587 1587 1586 1586 1585 1584 1583 1582 1581 1580 1578 1577 1575 1574 1573 1571 1570 1568 1567
1564 1560 1560 1558 1557 1556 1560 1564 1565 1563 1563 1566 1566 1565 1563 1560 1561 1563 1565 1567 1570 1572 1574 1576 1579 1580 1582 1583 1584 1585 1585 1585 1585 1585 1584 1583 1582 1581 1580 1579 1577 1576 1574 1573 1572 1570 1569 1568 1566
1563 1561 1558 1557 1557 1554 1558 1561 1561 1562 1562 1563 1563 1562 1559 1557 1558 1560 1562 1564 1567 1569 1571 1573 1576 1578 1579 1580 1581 1582 1583 1583 1583 1583 1582 1581 1580 1579 1578 1577 1576 1575 1573 1572 1571 1570 1568 1567 1565
1561 1561 1557 1554 1554 1552 1557 1559 1559 1559 1559 1558 1557 1557 1555 1555 1555 1557 1559 1560 1562 1564 1566 1569 1572 1574 1576 1578 1578 1579 1580 1580 1580 1580 1580 1579 1578 1577 1576 1575 1574 1573 1572 1571 1570 1569 1567 1566 1564
1561 1558 1552 1552 1552 1552 1555 1556 1556 1556 1555 1554 1553 1551 1551 1551 1552 1553 1554 1555 1557 1559 1561 1564 1567 1569 1572 1573 1575 1576 1576 1577 1577 1577 1577 1576 1575 1575 1574 1573 1572 1571 1570 1569 1568 1567 1565 1564 1562
1558 1554 1552 1554 1555 1555 1554 1554 1553 1552 1547 1545 1545 1545 1545 1547 1547 1548 1550 1551 1553 1555 1557 1559 1562 1564 1567 1568 1570 1571 1572 1573 1573 1573 1573 1573 1572 1572 1571 1571 1570 1569 1568 1567 1565 1564 1563 1562 1560
1558 1555 1555 1554 1554 1554 1552 1551 1549 1546 1539 1541 1541 1542 1540 1541 1541 1542 1544 1546 1549 1550 1552 1554 1556 1559 1561 1563 1565 1567 1567 1568 1569 1569 1570 1570 1569 1569 1568 1568 1567 1566 1565 1564 1563 1562 1560 1559 1557
1556 1554 1554 1553 1552 1552 1550 1547 1545 1537 1535 1537 1535 1535 1535 1535 1536 1538 1540 1542 1543 1544 1546 1548 1550 1553 1555 1557 1559 1561 1562 1563 1564 1565 1565 1565 1565 1565 1565 1564 1563 1563 1562 1561 1560 1558 1557 1555 1554
1555 1554 1552 1551 1551 1550 1548 1543 1542 1528 1531 1530 1529 1528 1528 1529 1530 1532 1533 1533 1535 1537 1540 1542 1544 1547 1549 1551 1553 1555 1557 1558 1559 1560 1560 1561 1561 1561 1561 1560 1559 1559 1558 1557 1556 1554 1553 1551 1550
1555 1553 1548 1548 1548 1547 1547 1536 1530 1523 1526 1524 1523 1521 1521 1521 1522 1522 1524 1526 1528 1531 1534 1536 1538 1540 1542 1545 1547 1549 1551 1553 1553 1554 1555 1555 1556 1556 1556 1555 1555 1554 1553 1552 1551 1550 1549 1547 1545
1552 1548 1542 1541 1545 1546 1547 1527 1518 1521 1520 1518 1516 1515 1513 1512 1513 1514 1516 1518 1521 1524 1526 1529 1531 1533 1535 1538 1540 1542 1544 1546 1547 1548 1549 1549 1550 1550 1550 1550 1549 1549 1548 1547 1546 1545 1543 1542 1540
1545 1542 1539 1538 1542 1543 1542 1524 1512 1516 1515 1512 1509 1508 1506 1505 1504 1505 1508 1510 1513 1516 1519 1521 1523 1526 1528 1531 1533 1535 1537 1539 1540 1540 1541 1542 1543 1544 1544 1544 1543 1543 1542 1541 1540 1539 1538 1536 1534
1543 1541 1538 1536 1536 1541 1536 1521 1506 1507 1509 1504 1500 1499 1499 1497 1495 1498 1500 1503 1506 1508 1511 1513 1516 1518 1522 1524 1526 1527 1528 1529 1531 1531 1533 1534 1535 1536 1537 1537 1537 1536 1536 1535 1534 1533 1531 1530 1528
1545 1544 1539 1533 1534 1539 1528 1515 1500 1496 1498 1495 1492 1491 1490 1488 1490 1493 1493 1495 1497 1500 1502 1504 1507 1510 1512 1513 1515 1516 1517 1519 1521 1522 1524 1526 1527 1528 1529 1529 1529 1529 1528 1528 1528 1527 1525 1523 1521
1546 1544 1536 1529 1536 1536 1525 1512 1496 1491 1490 1488 1486 1484 1483 1482 1483 1485 1485 1486 1488 1491 1493 1496 1498 1501 1503 1504 1507 1509 1511 1511 1512 1514 1515 1516 1518 1519 1519 1520 1521 1521 1521 1520 1520 1519 1519 1517 1515
1542 1541 1534 1534 1532 1533 1531 1505 1489 1484 1486 1486 1483 1481 1478 1477 1476 1478 1479 1479 1481 1483 1485 1488 1491 1493 1495 1498 1500 1501 1501 1501 1502 1502 1504 1506 1507 1508 1509 1511 1512 1512 1512 1512 1511 1511 1511 1511 1509
1538 1537 1539 1539 1536 1526 1531 1520 1491 1483 1483 1481 1481 1479 1477 1475 1474 1474 1474 1474 1475 1477 1480 1483 1485 1487 1488 1490 1490 1490 1489 1489 1490 1493 1494 1496 1497 1498 1499 1501 1502 1502 1502 1502 1503 1503 1503 1503 1502
1537 1540 1539 1538 1536 1532 1526 1526 1497 1484 1481 1479 1480 1480 1478 1476 1473 1472 1471 1471 1471 1473 1474 1476 1478 1479 1480 1481 1481 1481 1481 1482 1484 1484 1484 1485 1485 1486 1487 1489 1490 1491 1491 1493 1493 1493 1493 1493 1494
1540 1540 1539 1538 1533 1529 1522 1522 1500 1481 1483 1482 1481 1480 1479 1476 1474 1472 1470 1469 1468 1468 1468 1469 1470 1471 1472 1472 1472 1472 1472 1473 1474 1473 1473 1473 1473 1473 1475 1476 1478 1479 1480 1482 1483 1483 1484 1484 1484
1540 1535 1527 1523 1522 1518 1526 1524 1501 1481 1483 1485 1484 1482 1479 1477 1474 1471 1468 1466 1465 1463 1462 1462 1462 1462 1462 1462 1462 1462 1463 1464 1463 1463 1463 1463 1462 1461 1462 1464 1465 1467 1468 1471 1473 1473 1474 1474 1475
1537 1536 1533 1533 1523 1515 1523 1517 1490 1480 1482 1484 1484 1483 1479 1477 1474 1470 1466 1463 1461 1458 1456 1455 1454 1453 1453 1453 1453 1453 1454 1454 1453 1454 1453 1452 1451 1451 1452 1452 1454 1455 1458 1460 1462 1463 1464 1465 1465
1537 1535 1536 1533 1527 1530 1513 1505 1492 1478 1478 1480 1480 1479 1478 1475 1472 1468 1463 1460 1456 1454 1451 1449 1447 1446 1445 1445 1444 1444 1444 1444 1444 1444 1444 1442 1441 1441 1441 1441 1442 1444 1446 1448 1450 1451 1453 1455 1455
1539 1536 1537 1533 1530 1522 1509 1505 1492 1478 1475 1477 1478 1478 1476 1474 1470 1465 1461 1457 1453 1450 1447 1444 1442 1440 1438 1437 1436 1435 1435 1435 1435 1434 1433 1432 1432 1431 1430 1429 1430 1432 1434 1437 1438 1440 1443 1444 1445
1538 1538 1534 1528 1527 1523 1510 1497 1483 1480 1478 1480 1480 1478 1476 1473 1468 1463 1459 1455 1452 1448 1444 1441 1438 1436 1433 1431 1430 1429 1428 1427 1426 1425 1424 1423 1422 1421 1420 1419 1419 1420 1422 1425 1426 1428 1431 1433 1435
1531 1528 1528 1528 1518 1520 1512 1495 1478 1479 1480 1481 1480 1478 1475 1472 1467 1463 1459 1455 1451 1447 1443 1440 1436 1433 1430 1428 1425 1423 1422 1420 1418 1417 1416 1414 1412 1410 1409 1408 1408 1408 1410 1412 1414 1417 1420 1422 1425